Regional Weather Roundup
Issued by NWS Jackson, KY

Home | Current Version | Previous Version | Graphics & Text | Print | Product List | Glossary On
Versions: 1 2 3 4 5 6 7 8 9 10 11 12 13 14 15 16 17 18 19 20 21 22 23 24 25 26 27 28 29 30 31 32 33 34 35 36 37 38 39 40 41 42 43 44 45 46 47 48 49 50
586
ASUS43 KJKL 021110
RWRJKL

EAST KENTUCKY HOURLY WEATHER ROUNDUP
NATIONAL WEATHER SERVICE JACKSON KY
700 AM EDT MON MAY 02 2016

NOTE: "FAIR" INDICATES FEW OR NO CLOUDS BELOW 12,000 FEET WITH
NO SIGNIFICANT WEATHER AND/OR OBSTRUCTIONS TO VISIBILITY.

* THESE REPORTS ARE NOT UNDER NWS QUALITY CONTROL AND MAY NOT
  REPORT WEATHER SUCH AS PRECIPITATION AND FOG.

KYZ079-080-083-085-087-088-110-112-115-119-120-021200
...EASTERN KENTUCKY...

CITY           SKY/WX    TMP DP  RH WIND       PRES   REMARKS
JACKSON        CLOUDY    65  61  87 CALM      29.98R
LONDON         CLOUDY    65  60  84 SW6       30.00R
SOMERSET*      RAIN      64  61  88 W5        30.01R
MONTICELLO*    CLOUDY    66  63  90 W10       30.01R
WILLIAMSBURG*  MOSUNNY   59  59 100 CALM      30.01R
MIDDLESBORO*   MOCLDY    62  62 100 CALM      30.02R
HARLAN APT*    CLOUDY    59  59 100 CALM      30.03R VSB<1/4
HAZARD APT*    CLOUDY    64  64 100 SW6       29.99R
BLACK MTN*       N/A     57  57 100 NW3         N/A
BIG SANDY APT* PTSUNNY   64  62  94 CALM      29.98R
MOREHEAD APT*  SUNNY     63  59  88 SW7       29.99R
$$

KYZ035-036-041-042-044-050-067-078-099-021200
...CENTRAL KENTUCKY...

CITY           SKY/WX    TMP DP  RH WIND       PRES   REMARKS
MT STERLING*   CLEAR     61  59  94 CALM      29.99R
FLEMING/MASON* PTCLDY    59  59  99 W7        29.97R FOG
DANVILLE*      CLOUDY    63  59  88 NW3       30.01R
RICHMOND*      CLOUDY    64  59  82 NW6       29.97R
LEXINGTON      CLEAR     59  56  89 W3        29.97R
FRANKFORT      PTCLDY    58  55  90 W3        29.95S
LOUISVILLE     MOCLDY    60  56  86 W7        29.98R
LEBANON*         N/A     61  59  94 CALM      30.00R
BOWLING GREEN  CLOUDY    62  52  69 VRB3      29.99S
$$

KYZ091>093-OHZ055-061-077-WVZ005-015-034-035-042-021200
...SOUTHERN OHIO/WEST VIRGINIA...

CITY           SKY/WX    TMP DP  RH WIND       PRES   REMARKS
COVINGTON      CLOUDY    59  58  96 W8        29.94R
COLUMBUS       CLOUDY    54  54 100 N3        29.90R FOG
DAYTON         FOG       53  53 100 W7        29.93R VSB 1/4
WILMINGTON     CLOUDY    58  58 100 SW7       29.92R FOG
HUNTINGTON     MOCLDY    62  59  90 VRB3      29.94R
CHARLESTON     MOCLDY    65  60  84 W8        29.95R
PINEVILLE*     CLOUDY    59  56  91 MISG      30.06R
BECKLEY        CLOUDY    61  59  93 SW8       30.03R
$$

VAZ002-007-008-TNZ017-027-036-066-071-021200
...SOUTHWEST VIRGINIA/EAST TENNESSEE...

CITY           SKY/WX    TMP DP  RH WIND       PRES   REMARKS
WISE*          CLOUDY    61  61 100 SW3       30.07R
BRISTOL        MOCLDY    65  61  87 S5        30.03R
MORRISTOWN*    MOSUNNY   64  61  88 SW5       30.01S
SEVIERVILLE*   MOSUNNY   57  57 100 CALM      30.02R
KNOXVILLE      MOCLDY    64  61  90 W3        30.01R
OAK RIDGE      CLOUDY    66  63  90 CALM      30.03R
CROSSVILLE     MOCLDY    64  57  78 CALM      30.04R
NASHVILLE      LGT RAIN  62  54  74 N9        29.99R
$$

...KEY TO REMARKS...
VSB - VISIBILITY IN MILES
WCI - WIND CHILL INDEX
HX  - HEAT INDEX

$$




USA.gov is the U.S. government's official web portal to all federal, state and local government web resources and services.